Погода в Красной Слободе

Россия / Брянская область     52°27′02″N   34°01′36″E
темп.,
°C
ветер,
м/с
пор.,
м/с
влажн.,
%
обл.,
%
осадки,
мм/ч
давл.,
гПа
погр.,
м
22 апреля, чт
чт2200:00+3ю399699 0.0 1014221
03:00+5ю31088100 0.0 1014286
06:00+4ю299579 0.0 1015206
09:00+10ююз487378 0.1 1016485
12:00+14ююз575635 0.1 10151282
15:00+16юз584999 0.8 10142020
18:00+13юз496834 1.7 10151025
21:00+9ю3128439 2.4 1016355
23 апреля, пт
пт2300:00+9ю41383100 0.4 1015424
03:00+9ю41382100 0.6 1014541
06:00+8ююз5148797 0.3 1014701
09:00+8зюз4793100 0.8 1015853
12:00+7зюз2487100 0.8 1016587
15:00+11зюз2557100 0.9 10151648
18:00+8з4668100 0.1 1014894
21:00+6зюз2376100 0.1 101491
24 апреля, сб
сб2400:00+5зюз377886 0.0 1013273
03:00+2зюз28885 0.0 1013209
06:00+1зюз28885 0.0 1013256
09:00+5з35685 0.0 1012820
12:00+3з6986100 0.4 1013746
15:00+6з796321 1.0 10131594
18:00+5зсз511635 0.8 10141677
21:00+3з411745 0.8 1016584
25 апреля, вс
вс2500:00+2зюз412785 0.0 1016433
03:00+1зюз411845 0.0 1016413
06:000юз3108878 0.0 1016358
09:00+3зюз487795 0.1 1016945
12:00+7зюз61052100 0.8 10162118
15:00+7зюз5955100 1.4 10151713
18:00+7з484941 0.4 10151927
21:00+2з22755 0.4 101614
26 апреля, пн
пн2600:000юз22803 0.0 101619
03:000юз228069 0.0 101634
06:000юз247930 0.0 1016102
09:00+6зюз35545 0.0 1014883
12:00+7зюз4548100 0.8 10131968
15:00+8зюз4548100 1.1 10121796
18:00+4зсз3686100 1.3 1012514
21:00+2зюз278896 1.8 1012155